La Grande, OR

3:05 AM PST on November 15, 2019 (GMT -0800)
La Grande-Union County

Weather History for KLGD - September, 2019

Change the Weather History Date:

Thursday, September 19, 2019

  Actual Average Record
Temperature  
Mean Temperature 52 °F -  
Max Temperature 64 °F 72 °F 88 °F (1974)
Min Temperature 39 °F 39 °F 30 °F (1965)
Degree Days  
Heating Degree Days 14    
Growing Degree Days 2 (Base 50)    
Moisture  
Dew Point 42 °F    
Average Humidity 84    
Maximum Humidity 100    
Minimum Humidity 43    
Precipitation  
Precipitation 0.00 in - - ()
Sea Level Pressure  
Sea Level Pressure 30.22 in    
Wind  
Wind Speed 4 mph (NW)    
Max Wind Speed 17 mph    
Max Gust Speed 23 mph    
Visibility 7 miles    
Events Fog , Rain    
Averages and records for this station are not official NWS values.
T = Trace of Precipitation, MM = Missing Value Source: NWS Daily Summary

Daily Weather History Graph

Daily Weather History Graph

Search for Another Location

Airport or City:

Astronomy

Sep. 19, 2019 Rise Set
Actual Time 6:35 AM PDT 6:55 PM PDT
Civil Twilight 6:05 AM PDT 7:25 PM PDT
Nautical Twilight 5:30 AM PDT 7:59 PM PDT
Astronomical Twilight 4:54 AM PDT 8:35 PM PDT
Moon 9:53 PM PDT (9/19) 11:57 AM PDT (9/19)
Length of Visible Light 13h 19m
Length of Day
12h 20m
Waning Gibbous, 73% of the Moon is Illuminated
Sep 19
Waning Gibbous
Sep 21
Last Quarter
Sep 28
New
Oct 5
First Quarter
Oct 13
Full

Hourly Weather History & Observations

Time (PDT) Temp. Windchill Dew Point Humidity Pressure Visibility Wind Dir Wind Speed Gust Speed Precip Events Conditions
12:56 AM 44.1 °F 42.5 °F 43.0 °F 96% 30.37 in 10.0 mi WSW 3.5 mph - N/A   Clear
1:56 AM 45.0 °F 43.5 °F 43.0 °F 93% 30.38 in 10.0 mi SSW 3.5 mph - N/A   Overcast
3:56 AM 41.0 °F - 39.9 °F 96% 30.39 in 10.0 mi Calm Calm - N/A   Scattered Clouds
4:23 AM 42.8 °F 41.1 °F 41.0 °F 93% 29.99 in 10.0 mi North 3.5 mph - N/A   Mostly Cloudy
4:56 AM 41.0 °F - 39.9 °F 96% 30.40 in 10.0 mi Calm Calm - N/A   Mostly Cloudy
5:08 AM 41.0 °F 39.0 °F 39.2 °F 93% 29.99 in 10.0 mi NNE 3.5 mph - N/A   Mostly Cloudy
5:38 AM 39.2 °F - 39.2 °F 100% 30.00 in 10.0 mi Calm Calm - N/A   Mostly Cloudy
5:47 AM 39.2 °F - 39.2 °F 100% 30.00 in 4.0 mi Calm Calm - N/A   Mostly Cloudy
5:56 AM 39.9 °F - 39.0 °F 97% 30.40 in 6.0 mi Calm Calm - N/A   Mostly Cloudy
6:02 AM 39.2 °F - 39.2 °F 100% 30.00 in 1.5 mi Calm Calm - N/A   Mostly Cloudy
6:16 AM 39.2 °F - 39.2 °F 100% 30.00 in 0.8 mi Calm Calm - N/A   Mostly Cloudy
6:19 AM 39.2 °F - 39.2 °F 100% 30.00 in 0.5 mi Calm Calm - N/A Fog Fog
6:34 AM 39.2 °F - 39.2 °F 100% 30.01 in 0.2 mi Calm Calm - N/A Fog Fog
6:47 AM 39.2 °F - 39.2 °F 100% 30.01 in 0.8 mi Calm Calm - N/A   Overcast
6:51 AM 39.2 °F - 39.2 °F 100% 30.01 in 1.2 mi Calm Calm - N/A   Overcast
6:56 AM 39.0 °F - 39.0 °F 100% 30.42 in 1.8 mi Calm Calm - N/A   Mostly Cloudy
7:01 AM 39.2 °F 37.0 °F 39.2 °F 100% 30.01 in 0.8 mi ENE 3.5 mph - N/A   Mostly Cloudy
7:05 AM 39.2 °F 37.0 °F 37.4 °F 93% 30.01 in 0.2 mi East 3.5 mph - N/A Fog Fog
7:17 AM 39.2 °F - 39.2 °F 100% 30.02 in 0.8 mi Calm Calm - N/A   Scattered Clouds
7:21 AM 39.2 °F - 39.2 °F 100% 30.02 in 1.2 mi Calm Calm - N/A   Mostly Cloudy
7:28 AM 39.2 °F - 39.2 °F 100% 30.02 in 3.0 mi Calm Calm - N/A   Mostly Cloudy
7:56 AM 41.0 °F - 41.0 °F 100% 30.43 in 10.0 mi Calm Calm - N/A   Partly Cloudy
8:05 AM 42.8 °F 41.1 °F 42.8 °F 100% 30.02 in 1.8 mi West 3.5 mph - N/A   Partly Cloudy
8:14 AM 42.8 °F 40.1 °F 42.8 °F 100% 30.03 in 3.0 mi NW 4.6 mph - N/A   Partly Cloudy
8:56 AM 48.0 °F - 46.0 °F 93% 30.43 in 10.0 mi ENE 3.5 mph - N/A   Partly Cloudy
9:56 AM 53.1 °F - 48.0 °F 83% 30.43 in 10.0 mi Calm Calm - N/A   Mostly Cloudy
10:20 AM 55.4 °F - 48.2 °F 77% 30.02 in 10.0 mi NNW 8.1 mph - N/A   Overcast
10:56 AM 57.0 °F - 46.9 °F 69% 30.42 in 10.0 mi NW 8.1 mph - N/A   Overcast
11:04 AM 57.2 °F - 46.4 °F 67% 30.01 in 10.0 mi NW 9.2 mph - N/A   Mostly Cloudy
11:56 AM 61.0 °F - 46.0 °F 58% 30.41 in 10.0 mi NW 8.1 mph - N/A   Mostly Cloudy
12:28 PM 62.6 °F - 44.6 °F 52% 30.01 in 10.0 mi WNW 11.5 mph - N/A   Partly Cloudy
12:56 PM 62.1 °F - 45.0 °F 53% 30.40 in 10.0 mi WNW 15.0 mph - N/A   Clear
1:56 PM 64.0 °F - 45.0 °F 50% 30.39 in 10.0 mi WNW 17.3 mph 23.0 mph N/A   Partly Cloudy
2:56 PM 62.1 °F - 43.0 °F 50% 30.38 in 10.0 mi WNW 15.0 mph 19.6 mph 0.00 in Rain Light Rain
3:56 PM 63.0 °F - 42.1 °F 46% 30.38 in 10.0 mi WNW 15.0 mph - 0.00 in   Overcast
4:56 PM 64.0 °F - 41.0 °F 43% 30.38 in 10.0 mi WNW 16.1 mph - N/A   Overcast
5:56 PM 62.1 °F - 43.0 °F 50% 30.40 in 10.0 mi WNW 15.0 mph - N/A   Overcast
6:56 PM 55.9 °F - 43.0 °F 62% 30.41 in 10.0 mi NW 9.2 mph - N/A   Partly Cloudy
7:56 PM 53.1 °F - 44.1 °F 71% 30.42 in 10.0 mi WNW 6.9 mph - N/A   Clear
8:56 PM 52.0 °F - 43.0 °F 71% 30.43 in 10.0 mi North 5.8 mph - N/A   Partly Cloudy
9:56 PM 48.9 °F - 43.0 °F 80% 30.42 in 10.0 mi North 5.8 mph - N/A   Clear
10:56 PM 48.9 °F - 43.0 °F 80% 30.42 in 10.0 mi NNW 8.1 mph - N/A   Clear
11:56 PM 48.9 °F - 44.1 °F 83% 30.43 in 10.0 mi Calm Calm - N/A   Overcast